Location: Engelhofen
(49.0255°N, 9.8472°E)
Time: 16:12:41
(UTC+00:00)

Daily predictions for brighter satellites

Satellite Brightness Start Highest point End
(mag) Time Altitude Azimuth Time Altitude Azimuth Time Altitude Azimuth
Cosmos 1726 1.7 19:47:40 10° N 19:50:48 84° W 19:53:54 10° S
Cosmos 1805 Rocket 4.2 19:46:57 10° N 19:51:08 41° ENE 19:55:19 10° SE
Cosmos 1980 Rocket 4.5 19:49:14 10° N 19:52:09 14° NNE 19:55:02 10° ENE
Cosmos 1733 3.7 19:52:45 10° N 19:56:03 37° ENE 19:59:19 10° SE
Cosmos 1842 Rocket 3.7 19:52:03 10° S 19:56:28 85° W 20:00:53 10° N
SL-8 R/B 3.7 19:53:47 10° W 19:58:33 85° S 20:03:20 10° E
Ariane Rocket 3.6 19:56:35 10° SE 20:01:23 45° ENE 20:06:13 10° N
Lacrosse 5 rocket 3.4 19:57:53 10° WNW 20:01:35 27° N 20:05:12 10° ENE
USA 234 4.0 19:56:16 10° ENE 20:02:41 58° NNW 20:09:03 10° W
Okean 3 Rocket 4.4 20:05:17 10° NNW 20:09:31 49° W 20:13:43 10° SSW
CZ-4C R/B 3.5 20:09:02 10° NNE 20:12:57 79° WNW 20:16:59 10° SSW
ERS-1 Rocket 3.0 20:08:47 10° SSE 20:13:47 75° ENE 20:18:50 10° N
USA 59 Rocket 0.1 20:11:17 10° NW 20:15:08 89° WSW 20:20:15 11° SE
SPOT 3 Rocket 3.9 20:10:45 10° SE 20:15:44 54° ENE 20:20:45 10° N
Cosmos 614 Rocket 4.4 20:11:28 10° S 20:16:23 44° ESE 20:21:20 10° NE
Cosmos 1818 4.1 20:12:35 10° S 20:17:33 38° ESE 20:22:35 10° NE
Lacrosse 4 Rocket 1.7 20:13:48 10° NNW 20:17:50 57° NE 20:21:37 12° SE
Cosmos 1340 Rocket 2.9 20:14:01 10° S 20:17:54 55° E 20:21:48 10° NNE
NOSS 2-1 (E) 3.6 20:14:20 10° NW 20:18:12 85° SW 20:23:14 12° SE
Meteor 1-27 Rocket 3.7 20:15:01 10° S 20:20:28 69° E 20:26:02 10° NNE
Resurs 01 Rocket 4.1 20:19:11 10° SW 20:22:23 19° W 20:25:36 10° NW
NOSS 8 (A) 4.4 20:18:35 10° SW 20:22:35 74° SE 20:25:44 10° NE
IRS-1C Rocket 4.4 20:18:22 10° S 20:23:36 70° WSW 20:28:52 10° NNW
Okean O Rocket 3.9 20:21:25 10° SW 20:24:50 22° W 20:28:15 10° NW
Terra 1.8 20:24:18 10° SSE 20:29:01 86° ENE 20:33:45 10° NNW
Cosmos 1805 3.5 20:26:08 10° N 20:29:46 49° ENE 20:32:42 15° SSE
Cosmos 1833 Rocket 4.0 20:26:09 12° SE 20:29:47 22° E 20:33:56 10° NE
NOSS 2-1 (D) 3.8 20:27:31 10° NW 20:31:21 64° SW 20:35:56 13° SSE
Cosmos 1656 3.8 20:26:55 10° NNW 20:32:22 66° ENE 20:37:08 14° SE
Cosmos 1743 Rocket 3.6 20:30:05 10° NNW 20:34:31 82° W 20:38:55 10° S
Okean 1 4.0 20:37:14 10° SSW 20:41:02 53° WNW 20:44:53 10° N
ARGOS Delta rocket 4.4 20:39:25 10° S 20:44:12 56° W 20:48:46 10° NNW
Centaur D AC-29 4.4 20:38:26 10° SSW 20:44:39 23° SSE 21:05:20 10° ESE
Cosmos 1151 Rocket 3.0 20:43:40 10° S 20:48:00 83° E 20:52:21 10° N
Landsat 5 3.7 20:44:50 10° NNE 20:48:28 41° E 20:51:04 17° SSE
Cosmos 1975 2.8 20:47:06 10° N 20:51:02 67° E 20:53:47 19° SSE
Cosmos 1992 Rocket 4.0 20:49:14 10° NNW 20:54:29 83° WSW 20:58:33 17° SSE
MOS 1 Rocket 3.8 20:54:08 13° S 20:58:48 74° WSW 21:04:13 10° NNW
USA 281 3.3 20:54:10 16° SE 20:59:36 75° ENE 21:06:13 10° NNW
Cosmos 220 Rocket 4.1 20:57:46 10° SSW 21:02:05 81° WNW 21:06:25 10° NNE
NOSS 3-3 (A) 3.7 20:58:07 10° SSW 21:03:31 67° SE 21:09:51 10° NE
ARIANE 5 R/B 3.8 21:02:57 16° ESE 21:05:39 29° ENE 21:09:24 10° N
Cosmos 1092 Rocket 4.1 21:01:47 13° S 21:07:23 69° E 21:13:41 10° NNE
Cosmos 1328 Rocket 3.7 21:05:06 19° SSE 21:08:01 57° E 21:12:16 10° NNE
Cosmos 1340 4.2 21:06:42 10° NW 21:09:35 26° W 21:12:28 10° SSW
Cosmos 2195 Rocket 4.4 21:07:42 11° S 21:13:40 88° E 21:19:49 10° N
Molniya-1 4.5 21:10:10 10° SW 21:14:01 86° SE 21:25:29 10° NE
BREEZE-M DEB (TANK) 4.4 21:15:40 18° ESE 21:15:40 18° ESE 21:17:56 10° E
Cosmos 1140 Rocket 4.3 21:14:22 21° SSE 21:17:01 34° ESE 21:21:41 10° NE
Spot 2 Rocket 4.4 21:12:30 11° SSW 21:17:01 42° W 21:21:49 10° NNW
MetOp-A 3.9 21:14:04 20° SSE 21:17:24 83° WSW 21:22:32 10° NNW
Cosmos 1515 Rocket 4.3 21:17:02 23° SE 21:19:00 35° E 21:22:56 10° NNE
NOSS 3-4 (A) 4.1 21:12:56 10° NW 21:19:36 65° NE 21:26:14 15° ESE
Cosmos 1626 1.6 21:17:58 26° S 21:19:39 83° E 21:22:54 10° N
NOSS 3-4 (C) 4.1 21:13:02 10° NW 21:19:42 64° NE 21:26:21 14° ESE
Cosmos 1707 3.9 21:26:10 22° ESE 21:27:03 24° E 21:30:01 10° NE
Cosmos 1697 Rocket 2.8 21:21:52 10° NNW 21:27:31 74° ENE 21:31:08 23° SE
BREEZE-M DEB (TANK) 2.8 21:18:38 10° SW 21:28:23 71° SSE 21:31:20 10° ENE
Cosmos 1470 Rocket 3.6 21:24:51 10° N 21:29:19 75° E 21:31:41 27° SSE
Cosmos 1633 Rocket 3.3 21:27:49 10° NNW 21:32:13 67° W 21:34:53 23° S
Orbus 7S? 3.5 21:31:00 10° SW 21:36:25 51° SE 21:39:26 10° ENE
NOSS 3-3 (C) 3.9 21:31:45 10° SW 21:37:13 83° NW 21:43:47 10° NE
Cosmos 1980 Rocket 2.9 21:32:08 10° NNW 21:37:40 47° NE 21:41:37 18° ESE
Cosmos 1666 Rocket 4.2 21:33:58 10° NNW 21:38:06 47° W 21:40:51 19° SSW
Lacrosse 5 rocket 2.3 21:36:36 10° NW 21:40:41 46° NNE 21:44:16 12° E
SL-8 R/B 3.7 21:36:12 10° W 21:40:54 61° SSW 21:43:38 24° SE
Cosmos 44 Rocket 3.3 21:38:28 10° NW 21:43:24 70° SW 21:45:49 29° SSE
USA 234 4.4 21:38:58 10° ENE 21:45:06 44° N 21:51:14 10° WNW
Cosmos 1842 3.3 21:44:35 36° SSE 21:45:43 52° E 21:49:19 10° NNE
Cosmos 1674 2.5 21:44:53 39° SSE 21:45:56 59° E 21:49:23 10° NNE
Cosmos 1763 Rocket 4.3 21:44:31 10° NNW 21:49:35 42° ENE 21:52:51 20° ESE
Cosmos 1066 Rocket 4.3 21:46:58 19° SSW 21:51:20 86° WNW 21:57:14 10° N
Meteor 2-12 Rocket 4.4 21:50:05 23° S 21:54:10 80° E 22:00:22 10° NNE
Cosmos 1933 Rocket 3.6 21:49:53 10° N 21:54:16 71° E 21:56:09 33° SSE
MINOTAUR 4 R/B 3.5 21:52:25 10° NNE 21:55:21 62° ESE 21:55:42 56° SE
Lacrosse 4 Rocket 3.4 21:52:55 10° WNW 21:55:44 18° WSW 21:57:32 14° SW
KORONAS-FOTON 3.7 21:55:04 40° SSE 21:56:11 63° E 21:59:53 10° NNE
Cosmos 407 Rocket 3.8 21:56:18 29° SSE 21:58:43 51° ESE 22:03:47 10° NNE
H-2A R/B 2.6 22:01:54 34° SE 22:03:38 66° ENE 22:07:55 10° N
USA 59 Rocket 2.5 22:02:12 10° W 22:04:43 14° WSW 22:06:49 12° SW
Cosmos 2369 4.1 21:59:39 10° NNW 22:05:18 57° ENE 22:08:52 23° SE
Cosmos 1607 4.0 21:59:05 10° SSW 22:05:33 84° SE 22:12:05 10° NE
Terra 4.3 22:05:07 10° WSW 22:07:15 13° W 22:09:23 10° WNW
Cosmos 1766 4.2 22:04:32 10° NNW 22:08:01 36° W 22:09:34 25° SW
Cosmos 1833 Rocket 2.9 22:07:45 11° SW 22:13:09 69° WNW 22:18:46 10° NNE
ALOS 2 3.2 22:12:16 29° SE 22:14:09 47° ENE 22:18:23 10° N
COSMOS 2406 3.9 22:15:19 28° SE 22:17:18 37° ESE 22:22:32 10° NE
SL-16 R/B 3.8 22:12:29 10° NNW 22:17:22 29° NE 22:22:15 10° ESE
Cosmos 1758 4.4 22:17:18 10° N 22:20:50 33° ENE 22:22:01 27° ESE
Cosmos 1470 3.0 22:18:58 10° NNW 22:22:35 52° W 22:23:37 38° SSW
S3M 4.0 22:19:18 10° N 22:25:45 90° SSW 22:29:12 30° S
Cosmos 2082 Rocket 2.5 22:23:56 32° SSE 22:26:18 51° ESE 22:31:50 10° NE
Cosmos 2251 Rocket 3.4 22:24:49 30° SSW 22:27:28 79° ESE 22:32:47 10° NNE
Cosmos 2360 Rocket 4.4 22:25:03 10° N 22:29:17 21° NE 22:33:31 10° E
DELTA 2 R/B (1) 4.3 22:27:05 10° WSW 22:31:29 31° SSW 22:31:29 31° SSW
Meteor 2-10 Rocket 3.9 22:30:17 10° N 22:36:06 66° ENE 22:38:54 31° SSE
GEOS 3 Rocket 3.9 22:31:49 10° NE 22:36:59 68° NW 22:42:04 10° SW
SL-08 ROCKET BODY 4.4 22:34:31 30° S 22:37:50 86° E 22:44:03 10° N
Cosmos 1908 3.5 22:35:03 10° NNW 22:38:31 49° W 22:39:14 41° SW
ARIANE 5 R/B 3.7 22:40:25 25° SW 22:41:59 33° W 22:45:55 10° NNW
Meteor 1-13 Rocket 4.3 22:40:24 28° SSW 22:43:39 81° WNW 22:49:32 10° N
Cosmos 2315 Rocket 4.0 22:39:58 10° N 22:46:20 89° E 22:49:34 31° S
H-2A R/B 3.0 22:44:40 10° NNE 22:48:41 33° E 22:49:42 30° SE
USA 267 4.3 22:44:55 10° ENE 22:50:04 24° SE 22:51:04 23° SE
Cosmos 2285 Rocket 4.4 22:48:47 17° SW 22:53:38 62° WNW 22:59:58 10° NNE
Cosmos 1346 Rocket 3.2 22:54:06 10° N 22:57:55 51° ENE 22:58:57 39° ESE
Meteor 1-22 Rocket 4.3 22:53:30 10° NNW 22:58:49 64° W 23:01:09 34° SSW
Spot 4 4.3 22:58:19 33° SSW 23:00:00 48° W 23:04:38 10° NNW
SL-4 R/B 4.5 23:02:20 10° ESE 23:02:20 10° ESE 23:02:30 10° ESE
Cosmos 1733 Rocket 3.0 22:57:29 10° N 23:01:52 78° E 23:03:12 44° SSE
Cosmos 1707 4.3 23:00:27 20° WSW 23:01:58 26° WNW 23:05:06 10° NNW
BREEZE-M DEB (TANK) 4.5 22:57:02 10° WSW 23:02:20 82° SSE 23:28:18 10° ENE
Cosmos 2278 4.0 22:57:54 10° NNW 23:03:37 66° ENE 23:07:01 25° SE
Cosmos 1400 Rocket 2.7 23:02:59 51° SSW 23:03:57 89° WNW 23:07:56 10° NNE
Cosmos 2266 Rocket 4.4 23:02:10 24° SW 23:05:54 57° WNW 23:12:08 10° N
Cosmos 1300 2.4 23:02:36 10° N 23:06:10 83° W 23:06:40 64° S
SL-24 R/B 4.5 23:02:09 10° NNE 23:06:58 77° ESE 23:09:07 37° S
Cosmos 1697 Rocket 4.3 23:06:52 10° NW 23:10:51 20° W 23:12:51 17° SW
Cosmos 1441 Rocket 4.3 23:08:31 10° NNW 23:11:36 28° W 23:12:05 26° WSW
Cosmos 2322 Rocket 3.2 23:06:59 10° NNW 23:12:22 42° NE 23:17:17 12° ESE
Cosmos 841 Rocket 3.7 23:08:08 10° NNW 23:13:23 67° ENE 23:16:05 29° SE
Meteor 1-21 4.3 23:11:02 35° S 23:13:32 72° E 23:19:18 10° NNE
Lacrosse 5 rocket 1.7 23:15:06 10° WNW 23:19:03 43° SW 23:19:04 43° SW
Okean 1-7 3.7 23:18:10 33° SE 23:19:22 41° E 23:23:27 10° NNE
Cosmos 2228 Rocket 3.2 23:19:15 40° SSW 23:20:46 71° W 23:25:19 10° N
Cosmos 1980 Rocket 3.1 23:16:25 10° NW 23:21:30 34° WSW 23:23:22 27° SW
USA 234 3.8 23:21:07 10° E 23:27:32 59° NNE 23:33:57 10° WNW
Cosmos 2333 Rocket 3.4 23:22:32 10° NNW 23:27:56 41° NE 23:33:19 10° ESE
Cosmos 1356 Rocket 3.3 23:27:09 49° SSW 23:28:14 86° WNW 23:32:26 10° N
Cosmos 540 Rocket 4.0 23:23:58 10° NW 23:28:52 44° WSW 23:30:28 34° SSW
Cosmos 1655 Rocket 4.5 23:26:16 25° SW 23:29:56 55° WNW 23:36:14 10° N
Cosmos 1953 2.7 23:27:11 10° N 23:31:01 53° ENE 23:32:08 38° SE
Genesis I 3.8 23:33:03 36° ESE 23:33:03 36° ESE 23:36:08 10° NE
GP-B 3.6 23:32:35 10° N 23:36:50 49° W 23:38:18 34° SW
SL-14 R/B 3.9 23:36:11 35° WSW 23:37:12 44° WNW 23:40:53 10° N
Cosmos 1703 Rocket 4.2 23:38:29 33° SE 23:39:57 46° E 23:44:14 10° NNE
Cosmos 1455 2.3 23:39:05 10° N 23:42:31 57° ENE 23:43:13 46° SE
Cosmos 1862 Rocket 3.9 23:42:08 37° SW 23:43:34 57° WNW 23:47:53 10° N
Aureole 3 3.0 23:44:34 51° W 23:44:46 52° WNW 23:48:01 10° N
SJ 16-02 2.8 23:45:36 22° SE 23:46:49 25° E 23:50:21 10° NE
Cosmos 676 Rocket 4.3 23:44:45 28° SW 23:47:31 63° WNW 23:52:49 10° NNE
RESURS DK-1 3.4 23:44:23 10° NNW 23:48:17 43° NE 23:51:07 17° ESE
ALOS 2 4.2 23:49:40 19° WSW 23:50:44 21° W 23:54:04 10° NW
